[[{"header":{"parameterUnit":"m.s-1","parameterCategory":1,"la1":30.2991,"la2":30.254,"lo1":-89.0895,"lo2":-89.0444,"dy":0.0017,"dx":0.0017,"nx":28,"ny":28,"refTime":"2025-12-15T09:00:00:Z","depth":0,"parameterNumber":2,"parameterNumberName":"U-component_of_WINDS"},"data":[0,0,0,0,0,0,0,0,0,0,0,0,0,0,0,0,0,0,0,0,0,0,0,0,0,0,0,0,0,0,0,0,0,0,0,0,0,0,0,0,0,0,0,0,0,0,0,0,0,0,0,0,0,0,0,0,0,0,-3.4957,-3.4958,0,-3.5088,-3.509,-3.5091,-3.5025,-3.5021,-3.5018,-3.5014,-3.5151,-3.5158,-3.5165,0,0,0,0,0,0,0,0,0,0,0,0,0,-3.4649,-3.4655,-3.4956,-3.4958,-3.496,-3.5088,-3.509,-3.5092,-3.5025,-3.5021,-3.5017,-3.5013,-3.5149,-3.5157,-3.5166,0,0,0,0,0,0,0,0,0,0,0,0,0,-3.4782,-3.4656,-3.4956,-3.4942,-3.4942,-3.5088,-3.509,-3.5092,-3.5026,-3.5021,-3.5016,-3.5011,-3.5146,-3.5157,-3.5167,-3.5334,0,0,-3.5198,-3.5203,0,0,0,0,0,0,0,0,-3.4774,-3.4793,-3.4942,-3.4943,-3.4943,-3.5034,-3.5031,-3.5173,-3.5027,-3.4994,-3.5014,-3.5008,-3.5117,-3.5129,-3.5166,-3.5341,-3.5347,-3.5199,-3.5205,-3.521,-3.5213,0,0,0,0,0,0,0,-3.4765,-3.4787,-3.5008,-3.4945,-3.4945,-3.4929,-3.4943,-3.5058,-3.5083,-3.4997,-3.4992,-3.5009,-3.5116,-3.5156,-3.5168,-3.5349,-3.5199,-3.5208,-3.5214,-3.5218,-3.5668,-3.5674,0,0,0,0,0,0,-3.4756,-3.478,-3.5004,-3.5012,-3.4844,-3.4939,-3.4954,-3.5011,-3.5082,-3.5088,-3.5013,-3.5005,-3.5141,-3.5156,-3.5173,-3.5374,-3.521,-3.5219,-3.5225,-3.5663,-3.567,-3.5676,0,0,0,0,0,0,-3.475,-3.4777,-3.4999,-3.4895,-3.4922,-3.495,-3.5014,-3.5016,-3.5055,-3.5094,-3.5098,-3.5049,-3.5137,-3.5158,-3.5295,-3.5378,-3.5224,-3.5233,-3.5656,-3.5665,-3.5673,-3.5779,0,0,0,0,0,0,-3.4741,-3.4775,-3.4839,-3.4897,-3.4928,-3.5119,-3.5019,-3.5022,-3.5073,-3.5064,-3.5129,-3.5134,-3.5135,-3.528,-3.5305,-3.539,-3.5242,-3.5648,-3.566,-3.567,-3.5768,-3.579,-3.5809,0,0,0,0,0,-3.4731,-3.4864,-3.4842,-3.487,-3.5008,-3.5124,-3.5141,-3.5139,-3.508,-3.5145,-3.5169,-3.5132,-3.5364,-3.5294,-3.5322,-3.5411,-3.5643,-3.5657,-3.5669,-3.5759,-3.5786,-3.5808,0,0,0,0,0,0,-3.4816,-3.4871,-3.4848,-3.5004,-3.506,-3.5112,-3.5194,-3.5167,-3.5241,-3.5229,-3.5223,-3.5238,-3.538,-3.5409,-3.5329,-3.5577,-3.5495,-3.5514,-3.5553,-3.5579,-3.5599,-3.559,-3.525,0,0,0,0,0,-3.4853,-3.4942,-3.4985,-3.5119,-3.5148,-3.5166,-3.5216,-3.5209,-3.5266,-3.529,-3.5324,-3.5382,-3.5468,-3.5525,-3.5606,-3.5771,-3.5784,-3.5846,-3.5866,-3.5883,-3.59,-3.599,-3.6018,-3.5718,-3.5718,-3.5718,0,0,-3.4931,-3.4972,-3.5028,-3.5137,-3.5179,-3.5272,-3.5186,-3.5288,-3.5357,-3.5305,-3.5436,-3.5464,-3.5528,-3.5679,-3.5747,-3.5708,-3.5985,-3.5899,-3.5912,-3.5921,-3.6006,-3.6034,-3.6059,-3.5727,-3.5725,-3.5724,0,0,-3.512,-3.5159,-3.5275,-3.5318,-3.5383,-3.5394,-3.5422,-3.5478,-3.5494,-3.5625,-3.5589,-3.567,-3.5818,-3.5865,-3.5909,-3.6114,-3.6083,-3.614,-3.6248,-3.6335,-3.6359,-3.638,-3.6454,-3.648,-3.6157,-3.6157,-3.6157,0,-3.5208,-3.5346,-3.5338,-3.5442,-3.5491,-3.5448,-3.5565,-3.5608,-3.5696,-3.5731,-3.5685,-3.5869,-3.5909,-3.6071,-3.6121,-3.6157,-3.6189,-3.6134,-3.6356,-3.6377,-3.6396,-3.6467,-3.6495,-3.6164,-3.6163,-3.6162,-3.6162,0,-3.5452,-3.5548,-3.5633,-3.5719,-3.5777,-3.5888,-3.5897,-3.5957,-3.5944,-3.596,-3.6094,-3.614,-3.623,-3.6267,-3.6256,-3.6428,-3.6401,-3.6356,-3.6273,-3.6431,-3.6498,-3.6525,-3.6173,-3.6171,-3.6169,-3.6167,0,0,-3.5701,-3.5779,-3.5811,-3.5849,-3.5916,-3.599,-3.6098,-3.6185,-3.6237,-3.6299,-3.639,-3.6515,-3.6473,-3.6522,-3.6516,-3.6592,-3.6753,-3.6537,-3.6539,-3.6577,-3.6946,-3.6981,-3.7012,-3.6732,-3.6737,-3.6741,-3.6941,0,-3.5895,-3.6084,-3.608,-3.6256,-3.6344,-3.6303,-3.6398,-3.6449,-3.6467,-3.6545,-3.6564,-3.6654,-3.659,-3.662,-3.6694,-3.6718,-3.6827,-3.6703,-3.6818,-3.6822,-3.6805,-3.7047,-3.7085,-3.7271,-3.6967,-3.6971,-3.6974,0,-3.6148,-3.6217,-3.6402,-3.6455,-3.6492,-3.6577,-3.6656,-3.6731,-3.6788,-3.6796,-3.685,-3.6831,-3.6941,-3.6854,-3.7006,-3.6922,-3.6968,-3.6987,-3.6994,-3.7006,-3.6909,-3.7067,-3.7331,-3.7359,-3.7015,-3.7011,-3.7009,0,-3.6312,-3.6451,-3.658,-3.6613,-3.6679,-3.674,-3.677,-3.6822,-3.6874,-3.6943,-3.6977,-3.7058,-3.7103,-3.7167,-3.717,-3.7106,-3.7324,-3.7237,-3.7334,-3.7334,-3.7383,-3.7381,-3.766,-3.7411,-3.741,-3.741,-3.7409,0,-3.6531,-3.6646,-3.6654,-3.6734,-3.6861,-3.6855,-3.6981,-3.7005,-3.7052,-3.7136,-3.7105,-3.7184,-3.7183,-3.7264,-3.7267,-3.7393,-3.7413,-3.7423,-3.7423,-3.7427,-3.7426,-3.7458,-3.7446,-3.7417,-3.7415,-3.7414,-3.7413,0,-3.6737,-3.6747,-3.6885,-3.6935,-3.695,-3.7042,-3.7085,-3.7161,-3.7174,-3.728,-3.7305,-3.7327,-3.742,-3.743,-3.7538,-3.754,-3.7693,-3.7678,-3.7673,-3.7672,-3.7768,-3.776,-3.808,-3.8122,-3.7844,-3.7847,-3.7849,0,-3.6877,-3.6964,-3.7023,-3.7076,-3.711,-3.7196,-3.7249,-3.7245,-3.7302,-3.7373,-3.7441,-3.753,-3.7602,-3.7753,-3.778,-3.7862,-3.785,-3.7956,-3.7862,-3.7864,-3.7853,-3.7849,-3.7858,-3.7975,-3.7978,-3.7981,-3.7983,0,-3.7124,-3.7124,-3.7201,-3.7281,-3.7344,-3.7407,-3.7465,-3.751,-3.7514,-3.7579,-3.7673,-3.7729,-3.7839,-3.7929,-3.801,-3.8042,-3.8014,-3.8012,-3.8039,-3.8045,-3.8039,-3.8044,-3.7725,-3.8005,-3.8003,-3.8001,-3.8,-3.7999,-3.7302,-3.7377,-3.7431,-3.7518,-3.7561,-3.7616,-3.7689,-3.7711,-3.779,-3.7879,-3.7872,-3.7977,-3.8031,-3.8137,-3.8174,-3.8256,-3.8221,-3.826,-3.827,-3.828,-3.8291,-3.8024,-3.8271,-3.827,-3.827,-3.8269,-3.8269,0,-3.7548,-3.758,-3.766,-3.7742,-3.7811,-3.7776,-3.7839,-3.7898,-3.7991,-3.8044,-3.8115,-3.8223,-3.831,-3.8342,-3.8427,-3.8487,-3.8476,-3.8509,-3.8506,-3.8513,-3.8317,-3.8286,-3.8516,-3.8516,-3.8516,-3.8516,-3.8516,-3.8516,-3.7685,-3.7811,-3.7818,-3.7965,-3.7996,-3.8098,-3.8137,-3.8187,-3.8229,-3.8352,-3.8423,-3.8443,-3.8488,-3.8576,-3.8654,-3.8661,-3.8694,-3.8734,-3.8736,-3.8552,-3.8527,-3.8503,-3.8474,-3.8741,-3.8741,-3.8925,-3.8927,-3.8928]},{"header":{"parameterUnit":"m.s-1","parameterCategory":1,"la1":30.2991,"la2":30.254,"lo1":-89.0895,"lo2":-89.0444,"dy":0.0017,"dx":0.0017,"nx":28,"ny":28,"refTime":"2025-12-15T09:00:00:Z","depth":0,"parameterNumber":3,"parameterNumberName":"V-component_of_WINDS"},"data":[0,0,0,0,0,0,0,0,0,0,0,0,0,0,0,0,0,0,0,0,0,0,0,0,0,0,0,0,0,0,0,0,0,0,0,0,0,0,0,0,0,0,0,0,0,0,0,0,0,0,0,0,0,0,0,0,0,0,-6.4512,-6.4513,0,-6.4576,-6.4577,-6.4577,-6.4498,-6.4495,-6.4492,-6.4489,-6.4551,-6.4555,-6.4559,0,0,0,0,0,0,0,0,0,0,0,0,0,-6.4317,-6.4321,-6.4512,-6.4513,-6.4514,-6.4576,-6.4577,-6.4577,-6.4499,-6.4495,-6.4491,-6.4488,-6.455,-6.4555,-6.456,0,0,0,0,0,0,0,0,0,0,0,0,0,-6.4393,-6.4322,-6.4512,-6.4482,-6.448,-6.4576,-6.4577,-6.4578,-6.4499,-6.4495,-6.4491,-6.4486,-6.4548,-6.4554,-6.4561,-6.4688,0,0,-6.458,-6.4583,0,0,0,0,0,0,0,0,-6.4389,-6.44,-6.4486,-6.4484,-6.4482,-6.4525,-6.453,-6.4614,-6.45,-6.4492,-6.4489,-6.4484,-6.4545,-6.4552,-6.4573,-6.4691,-6.4693,-6.4581,-6.4585,-6.4588,-6.459,0,0,0,0,0,0,0,-6.4384,-6.4397,-6.4537,-6.4487,-6.4485,-6.4463,-6.4469,-6.4546,-6.4542,-6.4492,-6.4487,-6.4495,-6.4544,-6.4567,-6.4574,-6.4694,-6.4581,-6.4587,-6.4591,-6.4593,-6.4915,-6.492,0,0,0,0,0,0,-6.4383,-6.4393,-6.4535,-6.4539,-6.4424,-6.447,-6.4477,-6.4515,-6.4541,-6.4541,-6.4499,-6.4491,-6.4558,-6.4567,-6.4576,-6.4724,-6.4588,-6.4594,-6.4598,-6.4911,-6.4916,-6.4921,0,0,0,0,0,0,-6.4379,-6.4396,-6.4533,-6.4465,-6.448,-6.4479,-6.4522,-6.4519,-6.4542,-6.4546,-6.4545,-6.4524,-6.4555,-6.4567,-6.466,-6.4725,-6.4597,-6.4603,-6.4905,-6.4912,-6.4919,-6.5023,0,0,0,0,0,0,-6.4373,-6.4395,-6.4445,-6.4467,-6.4484,-6.4618,-6.4526,-6.4523,-6.4554,-6.4545,-6.4569,-6.4569,-6.4553,-6.4651,-6.4666,-6.4732,-6.4608,-6.4899,-6.4908,-6.4917,-6.5014,-6.5033,-6.5049,0,0,0,0,0,-6.4367,-6.4472,-6.4448,-6.4465,-6.4547,-6.4622,-6.4632,-6.4611,-6.456,-6.4609,-6.4611,-6.4568,-6.4716,-6.4661,-6.4678,-6.4746,-6.4895,-6.4906,-6.4916,-6.5006,-6.5029,-6.5049,0,0,0,0,0,0,-6.4457,-6.4474,-6.4448,-6.4563,-6.4592,-6.4608,-6.4669,-6.4637,-6.468,-6.4669,-6.4641,-6.4647,-6.4746,-6.4755,-6.4694,-6.4869,-6.4797,-6.4811,-6.4859,-6.4881,-6.4899,-6.4894,-6.4613,0,0,0,0,0,-6.4491,-6.4552,-6.4562,-6.4663,-6.4679,-6.4672,-6.4704,-6.4685,-6.4713,-6.4724,-6.4733,-6.4761,-6.4813,-6.4848,-6.4896,-6.5015,-6.5018,-6.507,-6.5088,-6.5102,-6.5115,-6.5176,-6.5198,-6.4956,-6.4956,-6.4956,0,0,-6.456,-6.4577,-6.4617,-6.4681,-6.4701,-6.4763,-6.4682,-6.4752,-6.4796,-6.4734,-6.4823,-6.483,-6.4859,-6.4965,-6.5012,-6.4976,-6.5182,-6.5116,-6.5127,-6.5132,-6.5189,-6.5212,-6.5232,-6.4963,-6.4962,-6.496,0,0,-6.4718,-6.4738,-6.4823,-6.4844,-6.4875,-6.487,-6.489,-6.4911,-6.4914,-6.5002,-6.4957,-6.5008,-6.51,-6.5121,-6.5144,-6.5308,-6.5269,-6.5324,-6.5416,-6.5475,-6.5494,-6.5511,-6.5567,-6.5588,-6.5337,-6.5337,-6.5337,0,-6.48,-6.4893,-6.487,-6.4942,-6.497,-6.4918,-6.5002,-6.5024,-6.5069,-6.5089,-6.5048,-6.5159,-6.5175,-6.5284,-6.5324,-6.5345,-6.5365,-6.5321,-6.5494,-6.551,-6.5526,-6.5579,-6.56,-6.5343,-6.5342,-6.5342,-6.5341,0,-6.4991,-6.5055,-6.512,-6.5165,-6.5201,-6.5279,-6.5266,-6.5304,-6.5283,-6.5281,-6.537,-6.5386,-6.5436,-6.5461,-6.544,-6.5566,-6.5542,-6.5499,-6.5425,-6.5555,-6.5605,-6.5625,-6.5352,-6.535,-6.5348,-6.5346,0,0,-6.5208,-6.5239,-6.5263,-6.5281,-6.5311,-6.5359,-6.5433,-6.5483,-6.5515,-6.5548,-6.5607,-6.5685,-6.5644,-6.5669,-6.5651,-6.5703,-6.5829,-6.5652,-6.5652,-6.5683,-6.5966,-6.5998,-6.6022,-6.5804,-6.5808,-6.5811,-6.5963,0,-6.5364,-6.5494,-6.5475,-6.5599,-6.5656,-6.5607,-6.5671,-6.5695,-6.5694,-6.5742,-6.5741,-6.5795,-6.5738,-6.5753,-6.5803,-6.5803,-6.5885,-6.5792,-6.5857,-6.586,-6.585,-6.6048,-6.6083,-6.6225,-6.5982,-6.5985,-6.5988,0,-6.5565,-6.5604,-6.5734,-6.5753,-6.5776,-6.5834,-6.5876,-6.5923,-6.5948,-6.5944,-6.5973,-6.5943,-6.6015,-6.5941,-6.6038,-6.5975,-6.6,-6.6004,-6.6009,-6.6013,-6.5931,-6.6056,-6.627,-6.6291,-6.6018,-6.6016,-6.6014,0,-6.5707,-6.5793,-6.5881,-6.5899,-6.5923,-6.5965,-6.5977,-6.5998,-6.6028,-6.6064,-6.6083,-6.6127,-6.6151,-6.6185,-6.6167,-6.6116,-6.6267,-6.6192,-6.6263,-6.6264,-6.6296,-6.6294,-6.6516,-6.6316,-6.6315,-6.6315,-6.6315,0,-6.5883,-6.5964,-6.5945,-6.6,-6.6088,-6.6064,-6.6151,-6.6157,-6.6176,-6.6228,-6.6188,-6.6237,-6.6212,-6.626,-6.6247,-6.6327,-6.6339,-6.6336,-6.6331,-6.6339,-6.6339,-6.6354,-6.6343,-6.6321,-6.6319,-6.6318,-6.6317,0,-6.6057,-6.6048,-6.6141,-6.6156,-6.6161,-6.6225,-6.6237,-6.6287,-6.6283,-6.635,-6.6364,-6.6358,-6.6411,-6.6397,-6.6456,-6.6447,-6.6548,-6.6532,-6.654,-6.6535,-6.6607,-6.6599,-6.6845,-6.6874,-6.6657,-6.6659,-6.6661,0,-6.6169,-6.623,-6.6251,-6.6284,-6.6299,-6.6353,-6.6383,-6.6361,-6.6394,-6.6425,-6.6471,-6.6521,-6.656,-6.6647,-6.6647,-6.669,-6.6673,-6.6756,-6.668,-6.6685,-6.6672,-6.6668,-6.6673,-6.6771,-6.6774,-6.6776,-6.6777,0,-6.6368,-6.636,-6.6406,-6.645,-6.6487,-6.6521,-6.655,-6.6579,-6.6559,-6.6597,-6.6652,-6.6682,-6.6741,-6.679,-6.683,-6.684,-6.6805,-6.6802,-6.682,-6.6828,-6.6829,-6.6827,-6.6579,-6.6796,-6.6794,-6.6793,-6.6792,-6.6791,-6.6513,-6.6564,-6.6587,-6.6638,-6.6658,-6.6686,-6.6732,-6.6734,-6.6779,-6.6826,-6.681,-6.6872,-6.6893,-6.6942,-6.6957,-6.7004,-6.6972,-6.7,-6.7006,-6.7013,-6.7021,-6.6823,-6.7011,-6.7011,-6.701,-6.701,-6.7009,0,-6.6708,-6.672,-6.6768,-6.681,-6.685,-6.6814,-6.6844,-6.6879,-6.6935,-6.6958,-6.6996,-6.7058,-6.7105,-6.7108,-6.7151,-6.7188,-6.7173,-6.72,-6.7196,-6.7198,-6.7048,-6.7026,-6.7211,-6.7211,-6.7211,-6.7211,-6.7211,-6.7211,-6.6814,-6.6898,-6.6892,-6.6984,-6.6994,-6.7055,-6.7075,-6.71,-6.7117,-6.7188,-6.7227,-6.7229,-6.7243,-6.7287,-6.7328,-6.7327,-6.7344,-6.7378,-6.7371,-6.723,-6.7209,-6.719,-6.717,-6.7382,-6.7382,-6.7517,-6.7519,-6.752]}]]